Regional Weather Roundup
Issued by NWS

Home | Current Version | Previous Version | Text Only | Print | Product List | Glossary On
Versions: 1 2 3 4 5 6 7 8 9 10 11 12 13 14 15 16 17 18 19 20 21 22 23 24 25 26 27 28 29 30 31 32 33 34 35 36 37 38 39 40 41 42 43 44 45 46 47 48 49 50
000
ASHW40 PHFO 060543
RWRHI

WEATHER ROUNDUP FOR HAWAII
NATIONAL WEATHER SERVICE HONOLULU HI
700 PM HST SUN JUL 05 2015

THIS IS AN AUTOMATED REPORT THAT HAS NOT BEEN QUALITY CONTROLLED.

NOTE..."FAIR" INDICATES FEW OR NO CLOUDS BELOW 12,000 FEET WITH NO
SIGNIFICANT WEATHER AND/OR OBSTRUCTIONS TO VISIBILITY.

* - THESE SITES REPORT LIMITED FIELDS

HIZ001>004-060600-
KAUAI-NIIHAU-

CITY           SKY/WX    TMP DP  RH WIND       PRES   REMARKS
LIHUE APT      CLEAR     79  69  71 NE12      29.99R
PORT ALLEN*    NOT AVBL
POIPU*           N/A     81 N/A N/A NE7G14      N/A
PRINCEVILLE*     N/A     79 N/A N/A MISG        N/A
KOKOLE POINT*  NOT AVBL
MOLOAA DAIRY*  NOT AVBL
WAIMEA HTS*      N/A     79  66  65 SW2G10      N/A
PUU OPAE*        N/A     72  64  78 S3          N/A
PUU LUA*       NOT AVBL
MAKAHA RIDGE*    N/A     75  66  73 S2G8        N/A
$$

HIZ005>011-060600-
OAHU-

CITY           SKY/WX    TMP DP  RH WIND       PRES   REMARKS
HONOLULU       PTCLDY    82  67  60 NE13      29.96R
KALAELOA       CLEAR     81  65  58 VRB6      29.97R
KANEOHE MCB    PTCLDY    80  70  71 NE8       29.95R
WHEELER FIELD  FAIR      78  65  64 E9        29.97R
BELLOWS*         N/A    N/A N/A N/A NE13        N/A
KAHUKU*          N/A    N/A N/A N/A NE7         N/A
WHEELER*       NOT AVBL
WAIANAE HARBOR NOT AVBL
DILLINGHAM*      N/A     84  68  58 MISG        N/A
KAHUKU TRN*      N/A     79  70  73 E6G17       N/A
KAWAILOA*        N/A     75  66  73 E5G15       N/A
KII*             N/A     81  72  74 E13         N/A
MAKUA RANGE*     N/A     82  64  54 NE12G18     N/A
OAHU FOREST NW   N/A     66  66 100 CALM        N/A
SCHOFIELD BRK*   N/A     79  64  61 MISG        N/A
SCHOFIELD S*   NOT AVBL
WAIANAE VLY*     N/A     86  72  62 MISG        N/A  HX  92
KUAOKALA*        N/A     75  66  73 NE13G23     N/A
HONOULIUULI*   NOT AVBL
MOKUOLOE IS*     N/A    N/A N/A N/A MISG        N/A
PALEHUA*         N/A    N/A N/A N/A NE6G12      N/A
WAIAWA PHB*    NOT AVBL
$$

HIZ012>013-060600-
MOLOKAI-

CITY           SKY/WX    TMP DP  RH WIND       PRES   REMARKS
MOLOKAI AIRPT  CLEAR     78  68  71 NE12      29.97R
KALAUPAPA      NOT AVBL
MAKAPULAPAI*     N/A     79  68  69 E13G18      N/A
MOLOKAI 1*       N/A     81  72  74 NE5G17      N/A
PUU ALII*        N/A     64  61  90 CALM        N/A
$$

HIZ016-060600-
KAHOOLAWE-

CITY           SKY/WX    TMP DP  RH WIND       PRES   REMARKS
KAHOOLAWE*     NOT AVBL
HAKIOAWA*        N/A     74  64  70 MISG        N/A
HONOKANAIA*      N/A     80  66  63 NE12G22   29.97R
KANELOA*         N/A     79  68  69 NE15G26   30.01S
KEALIALALO*      N/A     79  63  57 E12G25    29.97R
LUA MAKIKA*    NOT AVBL
$$

HIZ014>015-060600-
LANAI-

CITY           SKY/WX    TMP DP  RH WIND       PRES   REMARKS
LANAI CITY     FAIR      73  66  78 NE17      30.01R
LANAI 1*         N/A     73  68  83 E14G23      N/A
$$

HIZ017>028-060600-
MAUI-

CITY           SKY/WX    TMP DP  RH WIND       PRES   REMARKS
KAHULUI        PTCLDY    80  68  66 NE13      29.96R
KAPALUA-W MAUI NOT AVBL
HANA AIRPORT   MOCLDY    77  68  73 E1        30.02R
HANA*            N/A     79 N/A N/A E3          N/A
HALEAKALA SUMM   N/A     45  21  39 NE23        N/A
MAALAEA BAY*   NOT AVBL
HALEAKALA*     NOT AVBL
KAUPO GAP*       N/A     64  64 100 CALM        N/A
KULA 1*          N/A     57  56  97 N2G9        N/A
$$

HIZ023>026-060600-
BIG ISLAND OF HAWAII COAST AND LOWER SLOPES-

CITY           SKY/WX    TMP DP  RH WIND       PRES   REMARKS
KAILUA KONA    CLEAR     82  70  66 S6        29.92R
HILO           CLOUDY    79  70  74 N5        29.97R
HONOKAA*       NOT AVBL
KAWAIHAE MWT*    N/A     84 N/A N/A NW8         N/A
KAWAIHAE*        N/A     81 N/A N/A W5          N/A
SOUTH POINT*     N/A     75 N/A N/A E12G17      N/A
UPOLU AIRPORT*   N/A    N/A N/A N/A E10         N/A
KAMUELA*       MOCLDY    66  63  88 NE12      30.08R
HAKALAU*         N/A     55  54  97 NE3         N/A
KALOKO-HONOKO*   N/A     81  70  69 SW3       29.93R
PALI 2*          N/A     66  59  77 NE17G31     N/A
KEALAKOMO*       N/A     66  50  55 NE15G25     N/A
KAUPULEHU*       N/A     77  64  65 N7          N/A
KAPAPALA*        N/A     71  68  91 W3G12       N/A
LOWER KAHUKU*    N/A     64  64 100 S1G7        N/A
PUHE CS*         N/A     82  68  61 W3G10       N/A
PUHO CS*         N/A     80  69  70 NW3         N/A
PTA KEAMUKU*     N/A     64  57  77 CALM        N/A
WAIKOLOA*        N/A     75  63  64 E12G18      N/A
$$

HIZ027>028-060600-
BIG ISLAND OF HAWAII INTERIOR AND SUMMMITS-

CITY           SKY/WX    TMP DP  RH WIND       PRES   REMARKS
BRADSHAW FIELD MOCLDY    60  56  87 W5        30.28R
MK VISITOR CEN   N/A      0   0 100 MISG        N/A
MAUNA KEA*       N/A     37 -11  12 E8          N/A
MAUNA LOA*       N/A     50   5  16 MISG        N/A
MAUNA LOA 1*   NOT AVBL
PTA KIPUKA*      N/A     73  70  88 NW6G13      N/A
PTA RANGE 17*    N/A     61  55  82 W5G15       N/A
PTA WEST*      NOT AVBL
NENE CABIN*      N/A     55 N/A N/A SE2         N/A
AHUMOA*          N/A     55  54  97 S6          N/A
PTA PORTABLE*  NOT AVBL
PUU MALI*        N/A    N/A N/A N/A E10G18      N/A
$$

HIC003-060600-
NORTHWEST ISLANDS-

CITY           SKY/WX    TMP DP  RH WIND       PRES   REMARKS
MIDWAY ISLAND  MOSUNNY   79  66  65 NE8       30.00R
MIDWAY NOS*    NOT AVBL
FRENCH FRIGATE NOT AVBL
$$

PHZ110>124-180-060600-
BUOY REPORTS

STATION/POSITION TIME  TEMP    WIND        PRES    WAVE   SWELL
                       AIR SEA DIR/SP/G            HT/PER HT/DIR
                 (UTC) (F)     (DEG/KT/KT) (MB)    (FT/S) (FT/D)
BUOY 51001       NOT AVBL
BUOY 51101       0500   81 80  130/  8/ 10 1015.1R   5/13   5/180
BUOY 51100       NOT AVBL
BUOY 51002       0500   80 81   80/ 12/ 14 1012.6R   6/16   5/200
BUOY 51003       0500   81 82   50/ 10/ 12 1013.4R   5/17   5
BUOY 51004       0423   79 80   50/ 14/ 17 1012.5R   6/17   5/230
BARBERS PT BUOY  NOT AVBL
WAIMEA BAY BUOY  0500      80                N/A     2/11   2/310
KAILUA BAY BUOY  0500      80                N/A     4/ 5   2/140
LANAI BUOY       NOT AVBL
BARBERS PT 2     0500      80                N/A     4/12   3/190
PAUWELA MAUI     0500      79                N/A     4/ 7   2/310
HILO             0500      80                N/A     4/ 9   2/110
KANEOHE BAY BUOY 0500      79                N/A     3/ 5
HANALEI KAUAI    0500      80                N/A     4/ 8   2/300
KAHULUI HARBOR   0500   79 83   50/  5/ 16 1014.8R
HONOLULU HARBOR  0500   81 81   40/  4/  9 1014.9R
KILO NALU        NOT AVBL
HILO HARBOR      0500   78 79   10/  7/  9 1014.7R
MOKUOLOE         0500   80 83   60/  8/ 10 1014.9S
NAWILIWILI       0500   79 82   60/  8/ 10 1015.3R
WHOTS BUOY       NOT AVBL
BUOY 51028       NOT AVBL
$$

......................KEY........................................
  SKY/WX - SKY CONDITIONS/PRESENT WEATHER
  TMP    - TEMPERATURE IN FAHRENHEIT
  DWPT   - DEWPOINT IN FAHRENHEIT
  RH     - RELATIVE HUMIDITY IN PERCENT
  WIND   - DIRECTION AND SPEED /MPH FOR ISLANDS...KTS FOR BUOYS/
  PRES   - MEAN SEA LEVEL PRESSURE IN INCHES OF HG
  VSB    - VISIBILITY IN MILES
  HX     - HEAT INDEX
  WCI    - WIND CHILL INDEX
  VRB    - VARIABLE WIND DIRECTION
  N/A    - NOT AVAILABLE



USA.gov is the U.S. government's official web portal to all federal, state and local government web resources and services.